Terminal Aerodrome Forecast
Issued by NWS Milwaukee/Sullivan, WI

Home | Current Version | Previous Version | Text Only | Print | Product List | Glossary On
Versions: 1 2 3 4 5 6 7 8 9 10 11 12 13 14 15 16 17 18 19 20 21 22 23 24 25 26 27 28 29 30 31 32 33 34 35 36 37 38 39 40 41 42 43 44 45 46 47 48 49 50
000
FTUS43 KMKX 272037 AAA
TAFMSN
TAF AMD
KMSN 272037Z 2721/2818 32010KT P6SM SKC
     FM272300 31005KT P6SM SCT140
     FM280600 00000KT P6SM BKN080
     FM281200 16006KT P6SM OVC035
     FM281500 16010KT P6SM OVC040=

USA.gov is the U.S. government's official web portal to all federal, state and local government web resources and services.